Regional Weather Roundup
Issued by NWS Green Bay, WI

Home | Current Version | Previous Version | Graphics & Text | Print | Product List | Glossary Off
Versions: 1 2 3 4 5 6 7 8 9 10 11 12 13 14 15 16 17 18 19 20 21 22 23 24 25 26 27 28 29 30 31 32 33 34 35 36 37 38 39 40 41 42 43 44 45 46 47 48 49 50

000
ASUS43 KGRB 042000
RWRGRB

NORTH-CENTRAL AND NORTHEAST WISCONSIN REGIONAL WEATHER ROUNDUP
NATIONAL WEATHER SERVICE GREEN BAY WI
300 PM CDT FRI SEP 04 2015

WIZ005-009-010>012-018-019-042100-
NORTH CENTRAL WISCONSIN

CITY           SKY/WX    TMP DP  RH WIND       PRES   REMARKS
IRONWOOD       SUNNY     82  64  54 S13       29.99S
MANITOWISH WTR NOT AVBL
ARBOR VITAE    NOT AVBL
EAGLE RIVER    NOT AVBL
LAND O LAKES   NOT AVBL
RHINELANDER    SUNNY     82  63  52 SE10      30.07S
PHILLIPS       SUNNY     82  66  58 SE7       30.03F
ANTIGO         NOT AVBL
TOMAHAWK       NOT AVBL
MERRILL        PTSUNNY   82  67  61 S7        30.05F
$$

WIZ013-073-042100-
NORTHEAST WISCONSIN

CITY           SKY/WX    TMP DP  RH WIND       PRES   REMARKS
IRON MOUNTAIN  MOSUNNY   82  65  56 SE7       30.05F
MARINETTE      MOSUNNY   72  63  73 E14       30.04F
$$

WIZ017-030-035>037-045-042100-
CENTRAL WISCONSIN

CITY           SKY/WX    TMP DP  RH WIND       PRES   REMARKS
MEDFORD        NOT AVBL
WAUSAU         MOSUNNY   81  65  58 E5        30.03F
MOSINEE        MOSUNNY   77  68  73 E3        30.06F
MARSHFIELD     SUNNY     79  64  60 E6        30.05S
WISC RAPIDS    SUNNY     79  64  60 VRB6      30.05F
STEVENS POINT  NOT AVBL
WAUPACA        NOT AVBL
SHAWANO        NOT AVBL
CLINTONVILLE   CLOUDY    77  66  69 SE3       30.04S
WAUTOMA        NOT AVBL
$$

WIZ038-039-048-051-042100-
FOX VALLEY

CITY           SKY/WX    TMP DP  RH WIND       PRES   REMARKS
NWS GREEN BAY  PTSUNNY   79  67  66 E6        30.04S
APPLETON       PTSUNNY   75  63  64 VRB3      30.04S
OSHKOSH        CLOUDY    73  65  75 NE6       30.05S
FOND DU LAC    CLOUDY    75  67  76 NE6       30.05S
$$

WIZ022-050-052-042100-
EAST CENTRAL WISCONSIN

CITY           SKY/WX    TMP DP  RH WIND       PRES   REMARKS
EPHRAIM        MOCLDY    71  65  81 N8        30.05F
STURGEON BAY   CLOUDY    72  64  78 N9        30.07S
MANITOWOC      NOT AVBL
SHEBOYGAN      PTSUNNY   75  67  76 N6        30.04S
$$

LMZ563-521-522-541>543-042100-
LAKESHORE

STATION/POSITION TIME  TEMP    WIND        PRES    VSBY  WAVE
                       AIR SEA DIR/SP/G                  HT/PER
                 (UTC) (F)     (DEG/KT/KT) (MB)    (MI)  (FT/S)
SHEBOYGAN LKSHOR 1900   66     360/  5/  5 1017.4F
KEWAUNEE LKSHORE 1900   65      70/  3/  4 1016.7R
ALGOMA MARINA    1914           70/ 10/ 11   N/A
NORTHPORT PIER   1900   74      70/  8/ 10 1017.6S
N MID LAKE BUOY  1850   68 67   40/  6/  8 1017.6R         1/ 4
CHAMBERS ISLAND  1900   69     360/  9/ 10 1017.9S
MENOMINEE LKSHOR 1900   67      30/ 12/ 13 1016.7R
$$



USA.gov is the U.S. government's official web portal to all federal, state and local government web resources and services.